Home > Time Zones > World Clock > Weather > U.S.A. > Bend > Past weeks

Flag for U.S.A. Weather past 2 weeks in Bend, Oregon, U.S.A.

Now
36 °F

Fog.


Feels Like: 36 °F
Forecast: 33 / 49 °F
Wind: No wind

Location: Roberts Field Airport

Current Time: Jan 29, 2015 at 9:25:16 AM

Latest Report: Jan 29, 2015 at 8:56 AM


Visibility: 0 mi

Pressure: 30.40 "Hg

Humidity: 100%

Dew point: 36 °F

Location of BendLocation

Historic Weather in Bend — Graph

°F

Bend temperature yesterday

Maximum temperature yesterday: 56 °F (at 2:56 PM)
Minimum temperature yesterday: 29 °F (at 5:56 AM)
Average temperature yesterday: 40 °F

Past Weeks' High & Low Weather Summary

 TemperatureHumidityPressure
High68 °F (Jan 25, 2:56 PM)100% (Jan 14, 8:56 AM)30.54 "Hg (Jan 14, 8:56 AM)
Low24 °F (Jan 20, 1:56 AM)31% (Jan 18, 12:56 PM)29.86 "Hg (Jan 17, 9:56 PM)
Average40 °F75%30.26 "Hg
* Reported Jan 14 7:56 AM — Jan 29 7:56 AM, Bend, Weather by CustomWeather, © 2014

Note: Actual official high and low records may vary slightly from our data, if they occured in-between our weather recording intervals... More about our weather records

Advertising

Bend weather history for previous 24 hours

 ConditionsComfort  
Time TempWeatherWind HumidityBarometerVisibility
7:56 AM
Jan 29
36 °FFog.No wind100%30.39 "Hg0 mi
6:56 AM36 °FFog.No wind100%30.38 "Hg1 mi
5:56 AM35 °FFog.No wind100%30.37 "Hg1 mi
4:56 AM35 °FFog.No wind100%30.37 "Hg0 mi
3:56 AM34 °FFog.No wind100%30.37 "Hg0 mi
2:56 AM33 °FFog.No wind100%30.37 "Hg0 mi
1:56 AM33 °FFog.No wind100%30.37 "Hg0 mi
12:56 AM33 °FLow clouds.No wind96%30.37 "Hg10 mi
11:56 PM
Jan 28
30 °FClear.5 mph96%30.37 "Hg10 mi
10:56 PM30 °FClear.No wind96%30.37 "Hg10 mi
9:56 PM34 °FClear.3 mph92%30.36 "Hg10 mi
8:56 PM41 °FClear.5 mph86%30.35 "Hg10 mi
7:56 PM42 °FClear.7 mph82%30.36 "Hg10 mi
6:56 PM45 °FClear.6 mph76%30.35 "Hg10 mi
5:56 PM47 °FClear.No wind74%30.34 "Hg10 mi
4:56 PM50 °FSunny.7 mph66%30.31 "Hg10 mi
3:56 PM55 °FSunny.3 mph49%30.30 "Hg10 mi
2:56 PM56 °FSunny.3 mph47%30.29 "Hg10 mi
1:56 PM55 °FSunny.3 mph49%30.29 "Hg10 mi
12:56 PM54 °FSunny.3 mph51%30.31 "Hg10 mi
11:56 AM51 °FSunny.6 mph54%30.34 "Hg10 mi
10:56 AM48 °FSunny.6 mph59%30.37 "Hg10 mi
9:56 AM43 °FPassing clouds.8 mph71%30.37 "Hg10 mi
Weather by CustomWeather, © 2014

See weather overviewHow to use our weather pages